Regional Weather Roundup
Issued by NWS Jackson, KY

Home | Current Version | Previous Version | Graphics & Text | Print | Product List | Glossary On
Versions: 1 2 3 4 5 6 7 8 9 10 11 12 13 14 15 16 17 18 19 20 21 22 23 24 25 26 27 28 29 30 31 32 33 34 35 36 37 38 39 40 41 42 43 44 45 46 47 48 49 50
000
ASUS43 KJKL 221211
RWRJKL

EAST KENTUCKY HOURLY WEATHER ROUNDUP
NATIONAL WEATHER SERVICE JACKSON KY
800 AM EDT TUE JUL 22 2014

NOTE: "FAIR" INDICATES FEW OR NO CLOUDS BELOW 12,000 FEET WITH
NO SIGNIFICANT WEATHER AND/OR OBSTRUCTIONS TO VISIBILITY.

* THESE REPORTS ARE NOT UNDER NWS QUALITY CONTROL AND MAY NOT
  REPORT WEATHER SUCH AS PRECIPITATION AND FOG.

KYZ079-080-083-085-087-088-110-112-115-119-120-221300
...EASTERN KENTUCKY...

CITY           SKY/WX    TMP DP  RH WIND       PRES   REMARKS
JACKSON        SUNNY     72  67  84 CALM      30.17R
6HR MIN TEMP:  70; 6HR MAX TEMP:  75;

LONDON         LGT RAIN  73  68  84 CALM      30.17R
6HR MIN TEMP:  69; 6HR MAX TEMP:  73; 6HR PCP: TRACE;

SOMERSET*      SUNNY     72  72 100 CALM      30.16R
MONTICELLO*    SUNNY     72  71  96 CALM      30.17R FOG
6HR MIN TEMP:  67; 6HR MAX TEMP:  72;

WILLIAMSBURG*    N/A     72  72 100 CALM      30.17R
MIDDLESBORO*   CLOUDY    69  67  94 CALM      30.18R
6HR MIN TEMP:  67; 6HR MAX TEMP:  71;

HARLAN APT*    CLOUDY    66  64  94 MISG      30.20R VSB<1/4
HAZARD APT*    SUNNY     68  68 100 CALM      30.18
BLACK MTN*       N/A     63  63 100 SW5         N/A
PIKEVILLE APT* SUNNY     70  66  88 S3        30.19R
BIG SANDY*     SUNNY     73  68  84 CALM      30.17R
6HR MIN TEMP:  70; 6HR MAX TEMP:  73;

MOREHEAD APT*    N/A     72  70  94 CALM      30.17R
$$

KYZ035-036-041-042-044-050-067-078-099-221300
...CENTRAL KENTUCKY...

CITY           SKY/WX    TMP DP  RH WIND       PRES   REMARKS
MT STERLING*   SUNNY     72  70  94 CALM      30.16R
FLEMING/MASON* PTSUNNY   70  70 100 CALM      30.15S FOG
DANVILLE*      SUNNY     68  68 100 S3        30.15R
RICHMOND*      SUNNY     70  68  94 CALM      30.14R
LEXINGTON      SUNNY     72  68  87 CALM      30.14R
6HR MIN TEMP:  68; 6HR MAX TEMP:  74;

FRANKFORT      SUNNY     70  67  90 CALM      30.12R
6HR MIN TEMP:  66; 6HR MAX TEMP:  70;

$$

KYZ091>093-OHZ055-061-077-WVZ005-015-034-035-042-221300
...SOUTHERN OHIO/WEST VIRGINIA...

CITY           SKY/WX    TMP DP  RH WIND       PRES   REMARKS
COVINGTON      MOSUNNY   73  69  87 CALM      30.14R FOG
COLUMBUS       SUNNY     75  68  78 CALM      30.14R HAZE
DAYTON         MOSUNNY   72  66  81 SE3       30.15S
WILMINGTON     SUNNY     70  66  87 NE3       30.14R FOG
HUNTINGTON     MOSUNNY   69  69 100 CALM      30.14R
PINEVILLE*     SUNNY     67  67 100 MISG      30.27R
BECKLEY        MOSUNNY   68  64  87 S5        30.26R
BLUEFIELD      PTSUNNY   70  63  78 CALM      30.28R
$$

VAZ002-007-008-TNZ017-027-036-066-071-221300
...SOUTHWEST VIRGINIA/EAST TENNESSEE...

CITY           SKY/WX    TMP DP  RH WIND       PRES   REMARKS
WISE*          SUNNY     70  64  83 S5        30.27R
JONESVILLE*    SUNNY     68  66  94 CALM      30.21R
ABINGDON*      MOSUNNY   71  67  89 CALM      30.23R
BRISTOL        MOSUNNY   70  65  84 CALM      30.20R
KNOXVILLE      PTSUNNY   72  70  93 CALM      30.15R
OAK RIDGE      CLOUDY    71  70  96 CALM      30.17R FOG
CROSSVILLE     SUNNY     69  65  86 CALM      30.20R
NASHVILLE      MOSUNNY   73  71  93 CALM      30.12R
$$

...KEY TO REMARKS...
VSB - VISIBILITY IN MILES
WCI - WIND CHILL INDEX
HX  - HEAT INDEX

$$



USA.gov is the U.S. government's official web portal to all federal, state and local government web resources and services.